Regional Weather Roundup
Issued by NWS Sioux Falls, SD

Home | Current Version | Previous Version | Text Only | Print | Product List | Glossary On
Versions: 1 2 3 4 5 6 7 8 9 10 11 12 13 14 15 16 17 18 19 20 21 22 23 24 25 26 27 28 29 30 31 32 33 34 35 36 37 38 39 40 41 42 43 44 45 46 47 48 49 50
000
ASUS43 KFSD 310510
RWRFSD

WEATHER ROUNDUP FOR SE SOUTH DAKOTA/SW MINNESOTA/NW IOWA
NATIONAL WEATHER SERVICE SIOUX FALLS SD
1200 AM CDT SAT JUL 31 2021

NOTE: "FAIR" INDICATES FEW OR NO CLOUDS BELOW 12,000 FEET WITH NO
SIGNIFICANT WEATHER AND OR OBSTRUCTIONS TO VISIBILITY.


SDZ038>040-050-052>070-310600-
SOUTHEAST SOUTH DAKOTA

CITY           SKY/WX    TMP DP  RH WIND       PRES   REMARKS
BROOKINGS      CLEAR     60  59  96 CALM      30.15R FOG
CHAMBERLAIN    CLOUDY    60  60 100 NE3       30.15F FOG
HURON          CLEAR     62  61  96 SW5       30.15R FOG
MITCHELL       FOG       60  59  96 CALM      30.14F VSB 1/4
SIOUX FALLS    CLOUDY    63  60  90 NE6       30.14R FOG
WINNER         CLOUDY    62  57  83 N3        30.15F HAZE
YANKTON        CLOUDY    64  60  87 E3        30.12R FOG
$$

MNZ071-072-080-081-089-090-097-098-310600-
SOUTHWEST MINNESOTA

CITY           SKY/WX    TMP DP  RH WIND       PRES   REMARKS
FAIRMONT       MOCLDY    59  58  96 CALM      30.13S FOG
MARSHALL       CLEAR     61  59  93 SW5       30.12S FOG
REDWOOD FALLS  CLEAR     61  58  90 SW6       30.10F
WORTHINGTON    CLOUDY    60  60 100 CALM      30.15R FOG
$$

IAZ001>003-012>014-020>022-031-032-NEZ013-014-SDZ071-310600-
NORTHWEST IOWA

CITY           SKY/WX    TMP DP  RH WIND       PRES   REMARKS
CHEROKEE       CLOUDY    62  62 100 NE3       30.12R FOG
DENISON        MOCLDY    64  64 100 NE5       30.11S FOG
ESTHERVILLE    FOG       63  62  97 CALM      30.13S VSB 3/4
LE MARS        CLOUDY    64  63  94 CALM      30.10S FOG
MAURICE        CLOUDY    63  63 100 NE6       30.11S FOG
SHELDON        FOG       59  59 100 NE3       30.12S VSB 3/4
SIOUX CITY     CLOUDY    65  59  81 E8        30.10S
SPENCER        FOG       62  60  93 CALM      30.13R VSB 1/4
STORM LAKE     LGT RAIN  63  63 100 E6        30.12S
$$

ABBREVIATIONS USED IN REMARKS
   TC - TEMPERATURE IN CELSIUS
  WCI - WIND CHILL INDEX
   HX - HEAT INDEX
  VSB - VISIBILITY




USA.gov is the U.S. government's official web portal to all federal, state and local government web resources and services.